Year,Month,Day,Hour,Minute,Value (Times are PST for temperature in C)
2018,01,10,00,00,25.70
2018,01,10,00,01,25.70
2018,01,10,00,02,25.60
2018,01,10,00,03,25.50
2018,01,10,00,04,25.40
2018,01,10,00,05,25.20
2018,01,10,00,06,25.60
2018,01,10,00,07,25.30
2018,01,10,00,08,25.00
2018,01,10,00,09,24.70
2018,01,10,00,10,25.30
2018,01,10,00,11,25.00
2018,01,10,00,12,25.00
2018,01,10,00,13,24.80
2018,01,10,00,14,24.40
2018,01,10,00,15,25.50
2018,01,10,00,16,25.30
2018,01,10,00,17,25.40
2018,01,10,00,18,25.30
2018,01,10,00,19,26.20
2018,01,10,00,20,26.20
2018,01,10,00,21,26.20
2018,01,10,00,22,26.10
2018,01,10,00,23,26.00
2018,01,10,00,24,26.10
2018,01,10,00,25,26.30
2018,01,10,00,26,26.40
2018,01,10,00,27,26.50
2018,01,10,00,28,26.10
2018,01,10,00,29,26.30
2018,01,10,00,30,26.30
2018,01,10,00,31,26.30
2018,01,10,00,32,26.50
2018,01,10,00,33,26.40
2018,01,10,00,34,26.30
2018,01,10,00,35,26.30
2018,01,10,00,36,26.30
2018,01,10,00,37,26.20
2018,01,10,00,38,26.20
2018,01,10,00,39,26.30
2018,01,10,00,40,25.40
2018,01,10,00,41,25.60
2018,01,10,00,42,25.60
2018,01,10,00,43,25.60
2018,01,10,00,44,25.60
2018,01,10,00,45,25.50
2018,01,10,00,46,25.40
2018,01,10,00,47,25.50
2018,01,10,00,48,25.40
2018,01,10,00,49,25.50
2018,01,10,00,50,25.70
2018,01,10,00,51,26.10
2018,01,10,00,52,25.50
2018,01,10,00,53,24.30
2018,01,10,00,54,24.20
2018,01,10,00,55,24.20
2018,01,10,00,56,24.60
2018,01,10,00,57,25.70
2018,01,10,00,58,25.80
2018,01,10,00,59,25.90
2018,01,10,01,00,26.00
2018,01,10,01,01,25.90
2018,01,10,01,02,25.90
2018,01,10,01,03,25.90
2018,01,10,01,04,26.00
2018,01,10,01,05,26.10
2018,01,10,01,06,26.20
2018,01,10,01,07,26.00
2018,01,10,01,08,25.90
2018,01,10,01,09,25.80
2018,01,10,01,10,25.70
2018,01,10,01,11,25.70
2018,01,10,01,12,25.90
2018,01,10,01,13,25.10
2018,01,10,01,14,24.60
2018,01,10,01,15,24.90
2018,01,10,01,16,24.30
2018,01,10,01,17,24.50
2018,01,10,01,18,24.20
2018,01,10,01,19,24.10
2018,01,10,01,20,24.30
2018,01,10,01,21,25.10
2018,01,10,01,22,25.00
2018,01,10,01,23,24.70
2018,01,10,01,24,24.10
2018,01,10,01,25,24.60
2018,01,10,01,26,25.10
2018,01,10,01,27,24.70
2018,01,10,01,28,24.70
2018,01,10,01,29,24.40
2018,01,10,01,30,24.80
2018,01,10,01,31,25.20
2018,01,10,01,32,25.20
2018,01,10,01,33,25.20
2018,01,10,01,34,24.70
2018,01,10,01,35,25.20
2018,01,10,01,36,24.80
2018,01,10,01,37,24.70
2018,01,10,01,38,25.30
2018,01,10,01,39,24.70
2018,01,10,01,40,23.70
2018,01,10,01,41,23.60
2018,01,10,01,42,23.70
2018,01,10,01,43,23.20
2018,01,10,01,44,23.10
2018,01,10,01,45,22.90
2018,01,10,01,46,23.80
2018,01,10,01,47,23.70
2018,01,10,01,48,23.20
2018,01,10,01,49,23.10
2018,01,10,01,50,23.10
2018,01,10,01,51,23.20
2018,01,10,01,52,23.20
2018,01,10,01,53,23.00
2018,01,10,01,54,23.40
2018,01,10,01,55,23.50
2018,01,10,01,56,23.60
2018,01,10,01,57,22.90
2018,01,10,01,58,23.50
2018,01,10,01,59,24.00
2018,01,10,02,00,23.90
2018,01,10,02,01,23.80
2018,01,10,02,02,23.80
2018,01,10,02,03,23.90
2018,01,10,02,04,23.80
2018,01,10,02,05,23.50
2018,01,10,02,06,23.10
2018,01,10,02,07,22.80
2018,01,10,02,08,22.20
2018,01,10,02,09,24.70
2018,01,10,02,10,25.20
2018,01,10,02,11,24.70
2018,01,10,02,12,25.00
2018,01,10,02,13,25.20
2018,01,10,02,14,25.30
2018,01,10,02,15,24.90
2018,01,10,02,16,24.00
2018,01,10,02,17,24.50
2018,01,10,02,18,24.60
2018,01,10,02,19,24.70
2018,01,10,02,20,23.90
2018,01,10,02,21,23.80
2018,01,10,02,22,24.00
2018,01,10,02,23,23.80
2018,01,10,02,24,23.80
2018,01,10,02,25,23.70
2018,01,10,02,26,24.00
2018,01,10,02,27,24.20
2018,01,10,02,28,24.50
2018,01,10,02,29,23.90
2018,01,10,02,30,22.70
2018,01,10,02,31,23.60
2018,01,10,02,32,23.60
2018,01,10,02,33,22.40
2018,01,10,02,34,22.80
2018,01,10,02,35,23.50
2018,01,10,02,36,23.30
2018,01,10,02,37,23.80
2018,01,10,02,38,24.50
2018,01,10,02,39,23.90
2018,01,10,02,40,23.90
2018,01,10,02,41,23.50
2018,01,10,02,42,23.70
2018,01,10,02,43,23.60
2018,01,10,02,44,23.30
2018,01,10,02,45,23.10
2018,01,10,02,46,23.20
2018,01,10,02,47,23.20
2018,01,10,02,48,23.10
2018,01,10,02,49,23.40
2018,01,10,02,50,23.50
2018,01,10,02,51,23.40
2018,01,10,02,52,23.60
2018,01,10,02,53,23.10
2018,01,10,02,54,22.10
2018,01,10,02,55,22.40
2018,01,10,02,56,22.00
2018,01,10,02,57,21.90
2018,01,10,02,58,22.30
2018,01,10,02,59,22.30
2018,01,10,03,00,22.20
2018,01,10,03,01,22.20
2018,01,10,03,02,22.90
2018,01,10,03,03,24.00
2018,01,10,03,04,24.50
2018,01,10,03,05,23.90
2018,01,10,03,06,23.50
2018,01,10,03,07,23.10
2018,01,10,03,08,24.00
2018,01,10,03,09,24.20
2018,01,10,03,10,24.10
2018,01,10,03,11,23.80
2018,01,10,03,12,23.90
2018,01,10,03,13,23.90
2018,01,10,03,14,23.90
2018,01,10,03,15,23.80
2018,01,10,03,16,23.90
2018,01,10,03,17,23.90
2018,01,10,03,18,23.90
2018,01,10,03,19,24.10
2018,01,10,03,20,24.10
2018,01,10,03,21,24.00
2018,01,10,03,22,23.80
2018,01,10,03,23,23.60
2018,01,10,03,24,23.70
2018,01,10,03,25,23.20
2018,01,10,03,26,23.20
2018,01,10,03,27,23.10
2018,01,10,03,28,23.30
2018,01,10,03,29,24.00
2018,01,10,03,30,24.20
2018,01,10,03,31,24.00
2018,01,10,03,32,23.60
2018,01,10,03,33,23.90
2018,01,10,03,34,24.70
2018,01,10,03,35,24.20
2018,01,10,03,36,24.20
2018,01,10,03,37,24.00
2018,01,10,03,38,23.60
2018,01,10,03,39,23.60
2018,01,10,03,40,23.20
2018,01,10,03,41,23.40
2018,01,10,03,42,24.30
2018,01,10,03,43,24.40
2018,01,10,03,44,24.30
2018,01,10,03,45,24.10
2018,01,10,03,46,24.00
2018,01,10,03,47,24.50
2018,01,10,03,48,24.50
2018,01,10,03,49,24.30
2018,01,10,03,50,24.00
2018,01,10,03,51,23.50
2018,01,10,03,52,23.80
2018,01,10,03,53,24.10
2018,01,10,03,54,24.20
2018,01,10,03,55,23.60
2018,01,10,03,56,23.40
2018,01,10,03,57,23.90
2018,01,10,03,58,23.40
2018,01,10,03,59,23.70
2018,01,10,04,00,24.00
2018,01,10,04,01,23.90
2018,01,10,04,02,23.50
2018,01,10,04,03,23.60
2018,01,10,04,04,23.80
2018,01,10,04,05,24.00
2018,01,10,04,06,23.50
2018,01,10,04,07,23.30
2018,01,10,04,08,23.20
2018,01,10,04,09,23.00
2018,01,10,04,10,22.50
2018,01,10,04,11,22.50
2018,01,10,04,12,24.00
2018,01,10,04,13,24.80
2018,01,10,04,14,24.80
2018,01,10,04,15,24.40
2018,01,10,04,16,24.50
2018,01,10,04,17,25.80
2018,01,10,04,18,24.50
2018,01,10,04,19,24.30
2018,01,10,04,20,27.50
2018,01,10,04,21,27.40
2018,01,10,04,22,27.60
2018,01,10,04,23,27.60
2018,01,10,04,24,28.00
2018,01,10,04,25,28.10
2018,01,10,04,26,27.50
2018,01,10,04,27,27.20
2018,01,10,04,28,27.30
2018,01,10,04,29,27.40
2018,01,10,04,30,27.30
2018,01,10,04,31,27.30
2018,01,10,04,32,27.50
2018,01,10,04,33,26.90
2018,01,10,04,34,26.60
2018,01,10,04,35,26.30
2018,01,10,04,36,25.70
2018,01,10,04,37,25.70
2018,01,10,04,38,25.70
2018,01,10,04,39,25.70
2018,01,10,04,40,25.70
2018,01,10,04,41,25.70
2018,01,10,04,42,25.70
2018,01,10,04,43,25.70
2018,01,10,04,44,25.70
2018,01,10,04,45,25.70
2018,01,10,04,46,25.70
2018,01,10,09,17,25.50
2018,01,10,09,18,25.90
2018,01,10,09,19,26.20
2018,01,10,09,20,26.40
2018,01,10,09,21,26.60
2018,01,10,09,22,27.00
2018,01,10,09,23,27.00
2018,01,10,09,24,27.10
2018,01,10,09,25,27.40
2018,01,10,09,26,27.10
2018,01,10,09,27,27.20
2018,01,10,09,28,27.30
2018,01,10,09,29,27.40
2018,01,10,09,30,27.30
2018,01,10,09,31,27.80
2018,01,10,09,32,27.20
2018,01,10,09,33,27.20
2018,01,10,09,34,27.20
2018,01,10,09,35,27.30
2018,01,10,09,36,27.30
2018,01,10,09,37,27.70
2018,01,10,09,38,27.70
2018,01,10,09,39,27.60
2018,01,10,09,40,27.60
2018,01,10,09,41,27.60
2018,01,10,09,42,27.50
2018,01,10,09,43,27.50
2018,01,10,09,44,27.00
2018,01,10,09,45,26.00
2018,01,10,09,46,25.70
2018,01,10,09,47,26.10
2018,01,10,09,48,27.30
2018,01,10,09,49,27.20
2018,01,10,09,50,26.90
2018,01,10,09,51,27.00
2018,01,10,09,52,26.80
2018,01,10,09,53,27.10
2018,01,10,09,54,26.80
2018,01,10,09,55,27.10
2018,01,10,09,56,27.20
2018,01,10,09,57,27.10
2018,01,10,09,58,27.20
2018,01,10,09,59,27.10
2018,01,10,10,00,27.20
2018,01,10,10,01,27.30
2018,01,10,10,02,27.30
2018,01,10,10,03,27.30
2018,01,10,10,04,27.50
2018,01,10,10,05,27.60
2018,01,10,10,06,27.60
2018,01,10,10,07,27.70
2018,01,10,10,08,27.70
2018,01,10,10,09,27.70
2018,01,10,10,10,27.60
2018,01,10,10,11,27.70
2018,01,10,10,12,27.60
2018,01,10,10,13,27.60
2018,01,10,10,14,27.60
2018,01,10,10,15,27.50
2018,01,10,10,16,27.50
2018,01,10,10,17,26.80
2018,01,10,10,18,26.60
2018,01,10,10,19,26.40
2018,01,10,10,20,26.20
2018,01,10,10,21,27.10
2018,01,10,10,22,26.30
2018,01,10,10,23,26.10
2018,01,10,10,24,26.30
2018,01,10,10,25,26.10
2018,01,10,10,26,26.00
2018,01,10,10,27,26.00
2018,01,10,10,28,26.00
2018,01,10,10,29,26.00
2018,01,10,10,30,26.00
2018,01,10,10,31,25.90
2018,01,10,10,32,26.20
2018,01,10,10,33,26.70
2018,01,10,10,34,26.90
2018,01,10,10,35,27.00
2018,01,10,10,36,26.90
2018,01,10,10,37,26.50
2018,01,10,10,38,27.30
2018,01,10,10,39,26.70
2018,01,10,10,40,26.80
2018,01,10,10,41,26.50
2018,01,10,10,42,26.70
2018,01,10,10,43,26.60
2018,01,10,10,44,26.60
2018,01,10,10,45,26.90
2018,01,10,10,46,27.10
2018,01,10,10,47,27.20
2018,01,10,10,48,27.20
2018,01,10,10,49,27.20
2018,01,10,10,50,27.30
2018,01,10,10,51,27.20
2018,01,10,10,52,27.10
2018,01,10,10,53,27.10
2018,01,10,10,54,27.10
2018,01,10,10,55,27.00
2018,01,10,10,56,26.30
2018,01,10,10,57,25.80
2018,01,10,10,58,26.40
2018,01,10,10,59,26.30
2018,01,10,11,00,26.30
2018,01,10,11,01,26.20
2018,01,10,11,02,26.20
2018,01,10,11,03,26.20
2018,01,10,11,04,26.20
2018,01,10,11,05,26.30
2018,01,10,11,06,26.90
2018,01,10,11,07,26.80
2018,01,10,11,08,26.50
2018,01,10,11,09,27.00
2018,01,10,11,10,27.00
2018,01,10,11,11,26.50
2018,01,10,11,12,26.20
2018,01,10,11,13,26.90
2018,01,10,11,14,27.00
2018,01,10,11,15,27.00
2018,01,10,11,16,27.10
2018,01,10,11,17,27.10
2018,01,10,11,18,27.10
2018,01,10,11,19,27.30
2018,01,10,11,20,27.30
2018,01,10,11,21,27.30
2018,01,10,11,22,27.30
2018,01,10,11,23,27.30
2018,01,10,11,24,27.30
2018,01,10,11,25,27.40
2018,01,10,11,26,27.40
2018,01,10,11,27,27.20
2018,01,10,11,28,27.20
2018,01,10,11,29,27.20
2018,01,10,11,30,27.10
2018,01,10,11,31,26.90
2018,01,10,11,32,26.90
2018,01,10,11,33,26.40
2018,01,10,11,34,27.30
2018,01,10,11,35,27.30
2018,01,10,11,36,27.20
2018,01,10,11,37,27.10
2018,01,10,11,38,27.10
2018,01,10,11,39,27.00
2018,01,10,11,40,27.00
2018,01,10,11,41,27.00
2018,01,10,11,42,27.10
2018,01,10,11,43,27.10
2018,01,10,11,44,27.10
2018,01,10,11,45,27.10
2018,01,10,11,46,27.10
2018,01,10,11,47,27.10
2018,01,10,11,48,27.10
2018,01,10,11,49,27.10
2018,01,10,11,50,27.00
2018,01,10,11,51,27.10
2018,01,10,11,52,27.10
2018,01,10,11,53,27.00
2018,01,10,11,54,27.00
2018,01,10,11,55,27.10
2018,01,10,11,56,27.10
2018,01,10,11,57,27.10
2018,01,10,11,58,27.00
2018,01,10,11,59,27.00
2018,01,10,12,00,26.90
2018,01,10,12,01,27.10
2018,01,10,12,02,27.00
2018,01,10,12,03,27.10
2018,01,10,12,04,27.10
2018,01,10,12,05,26.70
2018,01,10,12,06,26.30
2018,01,10,12,07,26.50
2018,01,10,12,08,26.90
2018,01,10,12,09,26.80
2018,01,10,12,10,26.30
2018,01,10,12,11,26.80
2018,01,10,12,12,26.90
2018,01,10,12,13,26.90
2018,01,10,12,14,26.70
2018,01,10,12,15,27.90
2018,01,10,12,16,28.50
2018,01,10,12,17,28.60
2018,01,10,12,18,28.60
2018,01,10,12,19,28.50
2018,01,10,12,20,28.60
2018,01,10,12,21,28.50
2018,01,10,12,22,28.40
2018,01,10,12,23,28.30
2018,01,10,12,24,28.40
2018,01,10,12,25,28.40
2018,01,10,12,26,28.30
2018,01,10,12,27,28.30
2018,01,10,12,28,28.20
2018,01,10,12,29,28.10
2018,01,10,12,30,28.10
2018,01,10,12,31,28.10
2018,01,10,12,32,28.00
2018,01,10,12,33,27.90
2018,01,10,12,34,27.90
2018,01,10,12,35,27.60
2018,01,10,12,36,27.90
2018,01,10,12,37,28.10
2018,01,10,12,38,27.90
2018,01,10,12,39,27.90
2018,01,10,12,40,27.90
2018,01,10,12,41,27.60
2018,01,10,12,42,27.50
2018,01,10,12,43,27.20
2018,01,10,12,44,27.10
2018,01,10,12,45,27.40
2018,01,10,12,46,27.10
2018,01,10,12,47,27.00
2018,01,10,12,48,27.00
2018,01,10,12,49,26.20
2018,01,10,12,50,27.00
2018,01,10,12,51,27.10
2018,01,10,12,52,27.10
2018,01,10,12,53,27.30
2018,01,10,12,54,27.20
2018,01,10,12,55,27.20
2018,01,10,12,56,27.10
2018,01,10,12,57,27.10
2018,01,10,12,58,27.20
2018,01,10,12,59,27.20
2018,01,10,13,00,27.10
2018,01,10,13,01,27.10
2018,01,10,13,02,27.30
2018,01,10,13,03,27.30
2018,01,10,13,04,27.30
2018,01,10,13,05,27.30
2018,01,10,13,06,27.30
2018,01,10,13,07,27.30
2018,01,10,13,08,27.20
2018,01,10,13,09,27.20
2018,01,10,13,10,27.20
2018,01,10,13,11,27.20
2018,01,10,13,12,27.10
2018,01,10,13,13,27.20
2018,01,10,13,14,27.30
2018,01,10,13,15,27.30
2018,01,10,13,16,27.40
2018,01,10,13,17,27.50
2018,01,10,13,18,27.50
2018,01,10,13,19,27.60
2018,01,10,13,20,27.70
2018,01,10,13,21,27.70
2018,01,10,13,22,27.70
2018,01,10,13,23,27.70
2018,01,10,13,24,27.70
2018,01,10,13,25,27.80
2018,01,10,13,26,27.70
2018,01,10,13,27,27.70
2018,01,10,13,28,27.60
2018,01,10,13,29,27.70
2018,01,10,13,30,27.70
2018,01,10,13,31,27.60
2018,01,10,13,32,27.60
2018,01,10,13,33,27.50
2018,01,10,13,34,27.60
2018,01,10,13,35,27.50
2018,01,10,13,36,27.60
2018,01,10,13,37,27.60
2018,01,10,13,38,27.60
2018,01,10,13,39,27.50
2018,01,10,13,40,27.40
2018,01,10,13,41,27.50
2018,01,10,13,42,27.40
2018,01,10,13,43,27.40
2018,01,10,13,44,27.30
2018,01,10,13,45,27.30
2018,01,10,13,46,27.30
2018,01,10,13,47,27.30
2018,01,10,13,48,27.40
2018,01,10,13,49,27.40
2018,01,10,13,50,27.40
2018,01,10,13,51,27.40
2018,01,10,13,52,27.40
2018,01,10,13,53,27.40
2018,01,10,13,54,27.30
2018,01,10,13,55,27.50
2018,01,10,13,56,27.60
2018,01,10,13,57,27.60
2018,01,10,13,58,27.70
2018,01,10,13,59,27.80
2018,01,10,14,00,27.90
2018,01,10,14,01,27.90
2018,01,10,14,02,27.90
2018,01,10,14,03,28.00
2018,01,10,14,04,28.10
2018,01,10,14,05,28.10
2018,01,10,14,06,28.00
2018,01,10,14,07,28.00
2018,01,10,14,08,28.00
2018,01,10,14,09,27.90
2018,01,10,14,10,27.90
2018,01,10,14,11,27.90
2018,01,10,14,12,27.90
2018,01,10,14,13,27.80
2018,01,10,14,14,27.80
2018,01,10,14,15,27.80
2018,01,10,14,16,27.80
2018,01,10,14,17,27.70
2018,01,10,14,18,27.70
2018,01,10,14,19,27.70
2018,01,10,14,20,27.60
2018,01,10,14,21,27.50
2018,01,10,14,22,27.50
2018,01,10,14,23,27.60
2018,01,10,14,24,27.60
2018,01,10,14,25,27.40
2018,01,10,14,26,27.50
2018,01,10,14,27,27.50
2018,01,10,14,28,27.50
2018,01,10,14,29,27.60
2018,01,10,14,30,27.60
2018,01,10,14,31,27.80
2018,01,10,14,32,27.70
2018,01,10,14,33,27.60
2018,01,10,14,34,27.60
2018,01,10,14,35,27.60
2018,01,10,14,36,27.70
2018,01,10,14,37,27.60
2018,01,10,14,38,27.70
2018,01,10,14,39,27.70
2018,01,10,14,40,27.70
2018,01,10,14,41,27.70
2018,01,10,14,42,27.70
2018,01,10,14,43,27.70
2018,01,10,14,44,27.70
2018,01,10,14,45,27.70
2018,01,10,14,46,27.70
2018,01,10,14,47,27.80
2018,01,10,14,48,27.80
2018,01,10,14,49,27.80
2018,01,10,14,50,27.80
2018,01,10,14,51,27.80
2018,01,10,14,52,27.80
2018,01,10,14,53,27.90
2018,01,10,14,54,27.80
2018,01,10,14,55,27.90
2018,01,10,14,56,27.90
2018,01,10,14,57,27.90
2018,01,10,14,58,27.90
2018,01,10,14,59,27.90
2018,01,10,15,00,27.90
2018,01,10,15,01,27.90
2018,01,10,15,02,27.90
2018,01,10,15,03,27.90
2018,01,10,15,04,27.90
2018,01,10,15,05,27.90
2018,01,10,15,06,27.90
2018,01,10,15,07,27.90
2018,01,10,15,08,27.90
2018,01,10,15,09,27.90
2018,01,10,15,10,27.90
2018,01,10,15,11,27.90
2018,01,10,15,12,27.90
2018,01,10,15,13,27.80
2018,01,10,15,14,27.90
2018,01,10,15,15,27.80
2018,01,10,15,16,27.80
2018,01,10,15,17,27.90
2018,01,10,15,18,27.90
2018,01,10,15,19,27.70
2018,01,10,15,20,27.70
2018,01,10,15,21,27.80
2018,01,10,15,22,27.70
2018,01,10,15,23,27.60
2018,01,10,15,24,27.60
2018,01,10,15,25,27.50
2018,01,10,15,26,27.60
2018,01,10,15,27,27.60
2018,01,10,15,28,27.50
2018,01,10,15,29,27.40
2018,01,10,15,30,27.50
2018,01,10,15,31,27.40
2018,01,10,15,32,27.30
2018,01,10,15,33,27.40
2018,01,10,15,34,27.40
2018,01,10,15,35,27.40
2018,01,10,15,36,27.40
2018,01,10,15,37,27.50
2018,01,10,15,38,27.40
2018,01,10,15,39,27.30
2018,01,10,15,40,27.30
2018,01,10,15,41,27.40
2018,01,10,15,42,27.40
2018,01,10,15,43,27.50
2018,01,10,15,44,27.50
2018,01,10,15,45,27.50
2018,01,10,15,46,27.60
2018,01,10,15,47,27.60
2018,01,10,15,48,27.60
2018,01,10,15,49,27.40
2018,01,10,15,50,27.40
2018,01,10,15,51,27.40
2018,01,10,15,52,27.30
2018,01,10,15,53,27.40
2018,01,10,15,54,26.70
2018,01,10,15,55,27.00
2018,01,10,15,56,29.10
2018,01,10,15,57,29.50
2018,01,10,15,58,29.50
2018,01,10,15,59,29.50
2018,01,10,16,00,29.50
2018,01,10,16,01,29.40
2018,01,10,16,02,29.30
2018,01,10,16,03,29.40
2018,01,10,16,04,29.50
2018,01,10,16,05,29.40
2018,01,10,16,06,29.40
2018,01,10,16,07,29.40
2018,01,10,16,08,29.40
2018,01,10,16,09,29.50
2018,01,10,16,10,29.50
2018,01,10,16,11,29.40
2018,01,10,16,12,29.40
2018,01,10,16,13,29.50
2018,01,10,16,14,29.40
2018,01,10,16,15,29.60
2018,01,10,16,16,29.60
2018,01,10,16,17,29.60
2018,01,10,16,18,29.60
2018,01,10,16,19,29.60
2018,01,10,16,20,29.60
2018,01,10,16,21,29.60
2018,01,10,16,22,29.60
2018,01,10,16,23,29.60
2018,01,10,16,24,29.60
2018,01,10,16,25,29.70
2018,01,10,16,26,29.70
2018,01,10,16,27,29.60
2018,01,10,16,28,29.70
2018,01,10,16,29,29.70
2018,01,10,16,30,29.60
2018,01,10,16,31,29.60
2018,01,10,16,32,29.60
2018,01,10,16,33,29.60
2018,01,10,16,34,29.60
2018,01,10,16,35,29.60
2018,01,10,16,36,29.60
2018,01,10,16,37,29.60
2018,01,10,16,38,29.60
2018,01,10,16,39,29.60
2018,01,10,16,40,29.60
2018,01,10,16,41,29.60
2018,01,10,16,42,29.60
2018,01,10,16,43,29.60
2018,01,10,16,44,29.60
2018,01,10,16,45,29.60
2018,01,10,16,46,29.60
2018,01,10,16,47,29.60
2018,01,10,16,48,29.60
2018,01,10,16,49,29.60
2018,01,10,16,50,29.50
2018,01,10,16,51,29.60
2018,01,10,16,52,29.60
2018,01,10,16,53,29.50
2018,01,10,16,54,29.60
2018,01,10,16,55,29.50
2018,01,10,16,56,29.60
2018,01,10,16,57,29.60
2018,01,10,16,58,29.50
2018,01,10,16,59,29.60
2018,01,10,17,00,29.60
2018,01,10,17,01,29.60
2018,01,10,17,02,29.60
2018,01,10,17,03,29.70
2018,01,10,17,04,29.70
2018,01,10,17,05,29.80
2018,01,10,17,06,29.80
2018,01,10,17,07,29.80
2018,01,10,17,08,29.80
2018,01,10,17,09,29.70
2018,01,10,17,10,29.70
2018,01,10,17,11,29.70
2018,01,10,17,12,29.70
2018,01,10,17,13,29.60
2018,01,10,17,14,29.70
2018,01,10,17,15,29.60
2018,01,10,17,16,29.70
2018,01,10,17,17,29.70
2018,01,10,17,18,29.70
2018,01,10,17,19,29.70
2018,01,10,17,20,29.70
2018,01,10,17,21,29.60
2018,01,10,17,22,29.70
2018,01,10,17,23,29.70
2018,01,10,17,24,29.70
2018,01,10,17,25,29.70
2018,01,10,17,26,29.60
2018,01,10,17,27,29.70
2018,01,10,17,28,29.70
2018,01,10,17,29,29.70
2018,01,10,17,30,29.70
2018,01,10,17,31,29.70
2018,01,10,17,32,29.70
2018,01,10,17,33,29.60
2018,01,10,17,34,29.60
2018,01,10,17,35,29.60
2018,01,10,17,36,29.60
2018,01,10,17,37,29.70
2018,01,10,17,38,29.70
2018,01,10,17,39,29.80
2018,01,10,17,40,29.70
2018,01,10,17,41,29.80
2018,01,10,17,42,29.80
2018,01,10,17,43,29.80
2018,01,10,17,44,29.70
2018,01,10,17,45,29.80
2018,01,10,17,46,29.80
2018,01,10,17,47,29.70
2018,01,10,17,48,29.70
2018,01,10,17,49,29.70
2018,01,10,17,50,29.70
2018,01,10,17,51,29.70
2018,01,10,17,52,29.80
2018,01,10,17,53,29.80
2018,01,10,17,54,29.70
2018,01,10,17,55,29.80
2018,01,10,17,56,29.70
2018,01,10,17,57,29.70
2018,01,10,17,58,29.80
2018,01,10,17,59,29.80
2018,01,10,18,00,29.80
2018,01,10,18,01,29.80
2018,01,10,18,02,29.80
2018,01,10,18,03,29.70
2018,01,10,18,04,29.70
2018,01,10,18,05,29.70
2018,01,10,18,06,29.80
2018,01,10,18,07,29.80
2018,01,10,18,08,29.80
2018,01,10,18,09,29.80
2018,01,10,18,10,29.80
2018,01,10,18,11,29.80
2018,01,10,18,12,29.80
2018,01,10,18,13,29.80
2018,01,10,18,14,29.80
2018,01,10,18,15,29.80
2018,01,10,18,16,29.80
2018,01,10,18,17,29.80
2018,01,10,18,18,29.90
2018,01,10,18,19,29.90
2018,01,10,18,20,29.90
2018,01,10,18,21,29.80
2018,01,10,18,22,29.80
2018,01,10,18,23,29.80
2018,01,10,18,24,29.80
2018,01,10,18,25,29.80
2018,01,10,18,26,29.80
2018,01,10,18,27,29.80
2018,01,10,18,28,29.70
2018,01,10,18,29,29.80
2018,01,10,18,30,29.80
2018,01,10,18,31,29.80
2018,01,10,18,32,29.70
2018,01,10,18,33,29.70
2018,01,10,18,34,29.70
2018,01,10,18,35,29.80
2018,01,10,18,36,29.80
2018,01,10,18,37,29.80
2018,01,10,18,38,29.70
2018,01,10,18,39,29.70
2018,01,10,18,40,29.80
2018,01,10,18,41,29.80
2018,01,10,18,42,29.80
2018,01,10,18,43,29.80
2018,01,10,18,44,29.80
2018,01,10,18,45,29.70
2018,01,10,18,46,29.70
2018,01,10,18,47,29.70
2018,01,10,18,48,29.70
2018,01,10,18,49,29.80
2018,01,10,18,50,29.80
2018,01,10,18,51,29.70
2018,01,10,18,52,29.70
2018,01,10,18,53,29.40
2018,01,10,18,54,29.20
2018,01,10,18,55,29.10
2018,01,10,18,56,28.50
2018,01,10,18,57,28.40
2018,01,10,18,58,28.60
2018,01,10,18,59,28.60
2018,01,10,19,00,28.70
2018,01,10,19,01,28.70
2018,01,10,19,02,28.70
2018,01,10,19,03,28.70
2018,01,10,19,04,28.50
2018,01,10,19,05,28.40
2018,01,10,19,06,28.60
2018,01,10,19,07,28.60
2018,01,10,19,08,28.80
2018,01,10,19,09,28.60
2018,01,10,19,10,28.50
2018,01,10,19,11,28.70
2018,01,10,19,12,28.40
2018,01,10,19,13,28.40
2018,01,10,19,14,28.40
2018,01,10,19,15,28.20
2018,01,10,19,16,28.40
2018,01,10,19,17,28.40
2018,01,10,19,18,28.20
2018,01,10,19,19,28.40
2018,01,10,19,20,28.40
2018,01,10,19,21,28.40
2018,01,10,19,22,28.40
2018,01,10,19,23,28.40
2018,01,10,19,24,28.40
2018,01,10,19,25,28.50
2018,01,10,19,26,28.50
2018,01,10,19,27,28.50
2018,01,10,19,28,28.50
2018,01,10,19,29,28.40
2018,01,10,19,30,28.40
2018,01,10,19,31,28.30
2018,01,10,19,32,28.50
2018,01,10,19,33,28.50
2018,01,10,19,34,28.40
2018,01,10,19,35,28.20
2018,01,10,19,36,28.00
2018,01,10,19,37,28.00
2018,01,10,19,38,28.10
2018,01,10,19,39,28.20
2018,01,10,19,40,28.20
2018,01,10,19,41,28.10
2018,01,10,19,42,28.20
2018,01,10,19,43,27.80
2018,01,10,19,44,27.60
2018,01,10,19,45,27.50
2018,01,10,19,46,27.00
2018,01,10,19,47,26.60
2018,01,10,19,48,26.50
2018,01,10,19,49,26.40
2018,01,10,19,50,25.00
2018,01,10,19,51,27.00
2018,01,10,19,52,28.30
2018,01,10,19,53,28.50
2018,01,10,19,54,28.50
2018,01,10,19,55,28.50
2018,01,10,19,56,28.00
2018,01,10,19,57,27.90
2018,01,10,19,58,28.10
2018,01,10,19,59,28.00
2018,01,10,20,00,28.00
2018,01,10,20,01,28.30
2018,01,10,20,02,28.50
2018,01,10,20,03,28.50
2018,01,10,20,04,28.50
2018,01,10,20,05,28.20
2018,01,10,20,06,28.20
2018,01,10,20,07,28.60
2018,01,10,20,08,28.90
2018,01,10,20,09,28.90
2018,01,10,20,10,28.70
2018,01,10,20,11,28.20
2018,01,10,20,12,28.30
2018,01,10,20,13,28.30
2018,01,10,20,14,28.40
2018,01,10,20,15,28.50
2018,01,10,20,16,28.50
2018,01,10,20,17,28.70
2018,01,10,20,18,28.60
2018,01,10,20,19,28.30
2018,01,10,20,20,28.40
2018,01,10,20,21,28.60
2018,01,10,20,22,28.40
2018,01,10,20,23,28.20
2018,01,10,20,24,28.10
2018,01,10,20,25,28.10
2018,01,10,20,26,28.20
2018,01,10,20,27,28.20
2018,01,10,20,28,28.10
2018,01,10,20,29,28.20
2018,01,10,20,30,28.20
2018,01,10,20,31,28.10
2018,01,10,20,32,28.30
2018,01,10,20,33,28.00
2018,01,10,20,34,27.90
2018,01,10,20,35,27.90
2018,01,10,20,36,28.10
2018,01,10,20,37,28.00
2018,01,10,20,38,28.10
2018,01,10,20,39,27.50
2018,01,10,20,40,27.60
2018,01,10,20,41,27.90
2018,01,10,20,42,27.50
2018,01,10,20,43,26.80
2018,01,10,20,44,26.10
2018,01,10,20,45,26.20
2018,01,10,20,46,26.30
2018,01,10,20,47,26.30
2018,01,10,20,48,26.20
2018,01,10,20,49,26.10
2018,01,10,20,50,26.10
2018,01,10,20,51,26.10
2018,01,10,20,52,26.10
2018,01,10,20,53,26.00
2018,01,10,20,54,25.90
2018,01,10,20,55,25.70
2018,01,10,20,56,26.40
2018,01,10,20,57,26.50
2018,01,10,20,58,25.40
2018,01,10,20,59,25.50
2018,01,10,21,00,25.30
2018,01,10,21,01,25.70
2018,01,10,21,02,26.30
2018,01,10,21,03,25.80
2018,01,10,21,04,26.10
2018,01,10,21,05,25.00
2018,01,10,21,06,25.80
2018,01,10,21,07,26.70
2018,01,10,21,08,26.70
2018,01,10,21,09,26.50
2018,01,10,21,10,26.50
2018,01,10,21,11,26.50
2018,01,10,21,12,26.60
2018,01,10,21,13,26.60
2018,01,10,21,14,26.60
2018,01,10,21,15,26.60
2018,01,10,21,16,26.60
2018,01,10,21,17,26.60
2018,01,10,21,18,26.50
2018,01,10,21,19,26.60
2018,01,10,21,20,26.60
2018,01,10,21,21,26.70
2018,01,10,21,22,26.80
2018,01,10,21,23,26.50
2018,01,10,21,24,26.60
2018,01,10,21,25,26.50
2018,01,10,21,26,26.50
2018,01,10,21,27,26.60
2018,01,10,21,28,26.60
2018,01,10,21,29,26.80
2018,01,10,21,30,26.80
2018,01,10,21,31,26.70
2018,01,10,21,32,26.50
2018,01,10,21,33,26.40
2018,01,10,21,34,26.60
2018,01,10,21,35,26.40
2018,01,10,21,36,26.30
2018,01,10,21,37,26.30
2018,01,10,21,38,26.30
2018,01,10,21,39,26.20
2018,01,10,21,40,26.30
2018,01,10,21,41,26.30
2018,01,10,21,42,26.30
2018,01,10,21,43,26.60
2018,01,10,21,44,26.00
2018,01,10,21,45,26.40
2018,01,10,21,46,26.60
2018,01,10,21,47,26.60
2018,01,10,21,48,26.60
2018,01,10,21,49,26.60